Weather History for Anchorage, AK

Change the Weather History Date:

Sunday, July 6, 2014

  Actual Average Record
Temperature  
Mean Temperature 57 °F 58 °F  
Max Temperature 59 °F 65 °F 80 °F (1972)
Min Temperature 54 °F 52 °F 42 °F (1943)
Degree Days  
Heating Degree Days 8    
Month to date heating degree days 16  
Since 1 June heating degree days 344  
Since 1 July heating degree days 16  
Cooling Degree Days 0    
Month to date cooling degree days 3  
Year to date cooling degree days 3  
Since 1 June cooling degree days 3  
Growing Degree Days 8 (Base 50)    
Moisture  
Dew Point 52 °F    
Average Humidity 81    
Maximum Humidity 86    
Minimum Humidity 75    
Precipitation  
Precipitation 0.05 in 0.04 in 0.55 in (1948)
Month to date precipitation 0.05 0.26  
Year to date precipitation 6.61 4.47  
Snow  
Snow 0.00 in 0.00 in 0.00 in ()
Month to date snowfall 0.0 0.0  
Since 1 June snowfall 0.0 0.0  
Since 1 July snowfall 0.0 0.0  
Snow Depth 0.00 in    
Sea Level Pressure  
Sea Level Pressure 29.96 in    
Wind  
Wind Speed 4 mph (WNW)    
Max Wind Speed 8 mph    
Max Gust Speed 22 mph    
Visibility 10 miles    
Events Rain    
T = Trace of Precipitation, MM = Missing Value Source: NWS Daily Summary

Daily Weather History Graph

Daily Weather History Graph

Search for Another Location

Airport:

Trip Planner

Search our weather history database for the weather conditions in past years. The results will help you decide how hot, cold, wet, or windy it might be!

Date:

Astronomy

Jul. 06, 2014 Rise Set
Actual Time 4:35 AM AKDT 11:32 PM AKDT
Civil Twilight 2:30 AM AKDT 1:32 AM AKDT
Nautical Twilight Sun does not rise Sun does not rise
Astronomical Twilight Sun does not rise Sun does not rise
Moon 4:33 PM AKDT (7/6) 1:22 AM AKDT (7/6)
Length of Visible Light 23h 01m
Length of Day
18h 57m
Waxing Gibbous, 63% of the Moon is Illuminated
Jul 6
Waxing Gibbous
Jul 12
Full
Jul 18
Last Quarter
Jul 26
New
Aug 3
First Quarter

Hourly Weather History & Observations

Time (AKDT) Temp. Dew Point Humidity Pressure Visibility Wind Dir Wind Speed Gust Speed Precip Events Conditions
12:53 AM 59.0 °F 51.1 °F 75% 29.87 in 10.0 mi WSW 8.1 mph - N/A   Mostly Cloudy
1:53 AM 57.9 °F 51.1 °F 78% 29.87 in 9.0 mi West 6.9 mph - N/A   Overcast
2:53 AM 57.0 °F 51.1 °F 81% 29.88 in 10.0 mi Calm Calm - N/A   Mostly Cloudy
3:53 AM 57.0 °F 51.1 °F 81% 29.89 in 10.0 mi WSW 4.6 mph - N/A   Mostly Cloudy
4:53 AM 57.0 °F 51.1 °F 81% 29.91 in 10.0 mi WNW 4.6 mph - N/A   Mostly Cloudy
5:53 AM 55.9 °F 52.0 °F 87% 29.92 in 10.0 mi Calm Calm - 0.02 in Rain Light Rain
6:00 AM 55.4 °F 51.8 °F 88% 29.92 in 7.0 mi West 3.5 mph - 0.00 in Rain Light Rain
6:34 AM 55.4 °F 51.8 °F 88% 29.92 in 10.0 mi West 3.5 mph - 0.01 in   Overcast
6:53 AM 55.9 °F 51.1 °F 84% 29.93 in 10.0 mi West 5.8 mph - 0.01 in Rain Light Rain
7:53 AM 55.9 °F 52.0 °F 87% 29.95 in 10.0 mi West 4.6 mph - 0.00 in Rain Light Rain
8:53 AM 55.9 °F 52.0 °F 87% 29.96 in 10.0 mi WSW 4.6 mph - 0.00 in   Overcast
9:53 AM 55.9 °F 52.0 °F 87% 29.97 in 10.0 mi West 3.5 mph - N/A   Overcast
10:53 AM 55.9 °F 50.0 °F 80% 29.98 in 10.0 mi West 4.6 mph - N/A   Overcast
11:20 AM 57.2 °F 51.8 °F 82% 29.98 in 10.0 mi WNW 4.6 mph - N/A   Overcast
11:53 AM 57.0 °F 51.1 °F 81% 29.99 in 10.0 mi Calm Calm - N/A   Overcast
12:53 PM 57.0 °F 51.1 °F 81% 30.00 in 10.0 mi NW 3.5 mph - 0.00 in Rain Light Rain
1:53 PM 59.0 °F 52.0 °F 78% 30.01 in 10.0 mi NNW 4.6 mph - 0.01 in   Overcast
2:53 PM 57.9 °F 52.0 °F 81% 30.01 in 10.0 mi NNW 5.8 mph - N/A   Overcast
3:53 PM 59.0 °F 50.0 °F 72% 30.00 in 10.0 mi NNW 4.6 mph - N/A   Overcast
4:18 PM 59.0 °F 51.8 °F 77% 30.00 in 10.0 mi NW 4.6 mph - N/A   Overcast
4:53 PM 59.0 °F 51.1 °F 75% 30.00 in 10.0 mi NNW 3.5 mph - N/A   Overcast
5:53 PM 60.1 °F 52.0 °F 75% 29.99 in 10.0 mi NNW 3.5 mph - N/A   Overcast
6:53 PM 60.1 °F 52.0 °F 75% 29.99 in 10.0 mi North 4.6 mph - N/A   Overcast
7:53 PM 59.0 °F 50.0 °F 72% 29.99 in 10.0 mi SE 13.8 mph 21.9 mph 0.01 in Rain Light Rain
8:53 PM 59.0 °F 51.1 °F 75% 29.99 in 10.0 mi SE 11.5 mph - 0.01 in   Overcast
9:53 PM 57.9 °F 53.1 °F 84% 29.99 in 10.0 mi Calm Calm - 0.00 in Rain Light Rain
10:53 PM 57.0 °F 54.0 °F 89% 29.99 in 10.0 mi Calm Calm - 0.00 in Rain Light Rain
11:50 PM 57.2 °F 53.6 °F 88% 29.98 in 10.0 mi NE 8.1 mph - 0.01 in Rain Light Rain
11:53 PM 57.0 °F 54.0 °F 89% 29.98 in 10.0 mi NNE 6.9 mph - 0.01 in Rain Light Rain